Showing default

SUPERVIEW NEO-1 02, 52322

Orbit data source: Space-Track

SUPERVIEW NEO-1 02, 52322 is a payload satellite owned by Siwei (CN) in SSO that was launched on Fri, 29 Apr 2022 UTC via a CHANG ZHENG 2C launch vehicle from the Jiuquan Satellite Launch Center, China (JSC). Payload-class satellites include a variety of spacecraft equipped with specific instruments for various scientific and technological missions. These include communications satellites like Starlink; space stations such as the ISS; scientific satellites like the Hubble; Earth observation satellites from companies like Planet Labs, Umbra, and HawkEye 360; GPS; miniature CubeSats for education and research; and military/defense satellites.

Loading next visibility...
Identifier
52322, 2022-043C
Orbit
SSO
Country
Flag of CNCN / PRC
Related business
Manufacturer
DFH
Mission
Operational Commercial Imaging
Bus & Motor
SIWEI, Unknown motor
Mass
540 kg wet, ~500 kg dry
Launch date (UTC)
2022-04-29 (4 years ago)
Launch vehicle
CHANG ZHENG 2C
Launch site
Jiuquan Satellite Launch Center, China (JSC)
Object type
Payload
Rocket body
Debris
Shape & HBR
Box, 0.3 m
Radar Cross Section
0.375 m², Large (>1 m²)

Expand to show TLE details & history
Last TLE update: 22 hours ago

TLE from 22 hours ago
0 SUPERVIEW NEO-1 02
1 52322U 22043C   26172.53115743  .00003428  00000-0  17931-3 0  9993
2 52322  97.3398 245.1864 0001106  16.7260 343.4009 15.16500948230237
Epoch: 2026-06-21T12:44Z
TLE epoch observation values (Epoch: 2026-06-21T12:44:52.001Z)
Latitude
-0.00012°
Longitude
144.23965°
Altitude
518.782 km
Speed
7.604 km/s
True Right ascension
16h 20m 44s
True Declination
0° 00' 00"
Sunlit
Object was in full shadow at epoch
Visualization orbit readout
Latitude
Unknown
Longitude
Unknown
Altitude
Unknown
Speed
Unknown
Apparent Right ascension
Unknown
Apparent Declination
Unknown
Sunlit
N/A
Visualization observer readout
Local Sidereal Time
21:41:30
Azimuth
Unknown
Elevation
Unknown
Doppler factor
Unknown
Orbital elements
Apogee altitude
514.155 km
Perigee altitude
512.631 km
Semi-major axis
6,891.53 km
Eccentricity
0.00011
Inclination
97.3398°
RAAN
245.1864°
Arg. of periapsis
16.726°
True anomaly
343.39728°
Mean anomaly
343.4009°
Eccentric anomaly
343.39909°
Mean motion
3.79376 °/min
Orbital period
94.89 mins
BSTAR
0.00017931
Loading maneuver chart data...
Computing Atmospheric mass density...
Loading historical data...
Loading historical data...
Loading historical data...
Loading historical data...
Loading historical data...
Loading historical data...
Loading historical data...

Documentation

Showing up to 5 results
|